Valley City, ND

2:10 PM CDT on October 14, 2019 (GMT -0500)
Valley City

Weather History for KBAC - September, 2019

Change the Weather History Date:

Wednesday, September 18, 2019

  Actual Average (WUND) Record (WUND)
Temperature  
Mean Temperature 67 °F -  
Max Temperature 77 °F - - (-1)
Min Temperature 57 °F - - (-1)
Cooling Degree Days 2    
Growing Degree Days 17 (Base 50)    
Moisture  
Dew Point 63 °F    
Average Humidity 82    
Maximum Humidity 100    
Minimum Humidity 57    
Precipitation  
Precipitation 0.00 in - - ()
Sea Level Pressure  
Sea Level Pressure 29.75 in    
Wind  
Wind Speed 14 mph (WSW)    
Max Wind Speed 25 mph    
Max Gust Speed 33 mph    
Visibility 10 miles    
Events      
Averages and records for this station are not official NWS values.
T = Trace of Precipitation, MM = Missing Value Source: NWS Daily Summary

Daily Weather History Graph

Daily Weather History Graph

Search for Another Location

Airport or City:

Astronomy

Sep. 18, 2019 Rise Set
Actual Time 7:13 AM CDT 7:38 PM CDT
Civil Twilight 6:42 AM CDT 8:08 PM CDT
Nautical Twilight 6:06 AM CDT 8:44 PM CDT
Astronomical Twilight 5:29 AM CDT 9:21 PM CDT
Moon 9:57 PM CDT (9/18) 11:32 AM CDT (9/18)
Length of Visible Light 13h 25m
Length of Day
12h 24m
Waning Gibbous, 82% of the Moon is Illuminated
Sep 18
Waning Gibbous
Sep 21
Last Quarter
Sep 28
New
Oct 5
First Quarter
Oct 13
Full

Hourly Weather History & Observations

Time (CDT) Temp. Dew Point Humidity Pressure Visibility Wind Dir Wind Speed Gust Speed Precip Events Conditions
12:15 AM 75.2 °F 73.4 °F 94% 29.64 in 10.0 mi South 12.7 mph - N/A   Clear
12:35 AM 73.4 °F 73.4 °F 100% 29.64 in 10.0 mi South 12.7 mph - N/A   Clear
12:55 AM 75.2 °F 73.4 °F 94% 29.63 in 10.0 mi South 11.5 mph - N/A   Clear
1:15 AM 73.4 °F 73.4 °F 100% 29.62 in 10.0 mi SSW 12.7 mph - N/A   Clear
1:35 AM 73.4 °F 73.4 °F 100% 29.63 in 10.0 mi SSW 15.0 mph - N/A   Clear
1:55 AM 75.2 °F 73.4 °F 94% 29.65 in 10.0 mi SSW 17.3 mph 25.3 mph N/A   Partly Cloudy
2:15 AM 73.4 °F 73.4 °F 100% 29.66 in 10.0 mi SSW 12.7 mph 20.7 mph N/A   Partly Cloudy
2:35 AM 73.4 °F 71.6 °F 94% 29.65 in 10.0 mi SSW 15.0 mph - N/A   Clear
2:55 AM 73.4 °F 69.8 °F 88% 29.62 in 10.0 mi SSW 13.8 mph - N/A   Scattered Clouds
3:15 AM 71.6 °F 71.6 °F 100% 29.62 in 10.0 mi SSW 10.4 mph - N/A   Scattered Clouds
3:35 AM 69.8 °F 69.8 °F 100% 29.63 in 10.0 mi SSW 10.4 mph - N/A   Clear
3:55 AM 69.8 °F 68.0 °F 94% 29.63 in 10.0 mi SSW 11.5 mph - N/A   Clear
4:15 AM 69.8 °F 68.0 °F 94% 29.63 in 10.0 mi SW 15.0 mph 20.7 mph N/A   Clear
4:35 AM 69.8 °F 60.8 °F 73% 29.63 in 10.0 mi SW 18.4 mph 27.6 mph N/A   Partly Cloudy
4:55 AM 68.0 °F 60.8 °F 78% 29.64 in 10.0 mi SW 18.4 mph 26.5 mph N/A   Clear
5:15 AM 66.2 °F 60.8 °F 83% 29.65 in 10.0 mi SW 13.8 mph - N/A   Clear
5:35 AM 64.4 °F 60.8 °F 88% 29.67 in 10.0 mi SW 10.4 mph - N/A   Clear
5:55 AM 62.6 °F 60.8 °F 94% 29.67 in 10.0 mi SSW 10.4 mph - N/A   Clear
6:15 AM 60.8 °F 60.8 °F 100% 29.67 in 10.0 mi SSW 11.5 mph - N/A   Clear
6:35 AM 60.8 °F 59.0 °F 94% 29.68 in 10.0 mi SW 15.0 mph - N/A   Clear
6:55 AM 59.0 °F 57.2 °F 94% 29.70 in 10.0 mi SW 12.7 mph - N/A   Clear
7:15 AM 59.0 °F 55.4 °F 88% 29.71 in 10.0 mi SW 11.5 mph - N/A   Clear
7:35 AM 57.2 °F 55.4 °F 94% 29.72 in 10.0 mi SW 12.7 mph - N/A   Clear
7:55 AM 59.0 °F 55.4 °F 88% 29.72 in 10.0 mi SW 13.8 mph - N/A   Clear
8:15 AM 59.0 °F 55.4 °F 88% 29.71 in 10.0 mi SW 13.8 mph 19.6 mph N/A   Clear
8:35 AM 59.0 °F 55.4 °F 88% 29.71 in 10.0 mi SSW 15.0 mph - N/A   Clear
8:55 AM 60.8 °F 55.4 °F 82% 29.70 in 10.0 mi SW 17.3 mph - N/A   Clear
9:15 AM 62.6 °F 55.4 °F 77% 29.71 in 10.0 mi SW 18.4 mph - N/A   Clear
9:35 AM 62.6 °F 57.2 °F 82% 29.71 in 10.0 mi SW 18.4 mph 29.9 mph N/A   Clear
9:55 AM 64.4 °F 57.2 °F 77% 29.72 in 10.0 mi WSW 19.6 mph 28.8 mph N/A   Clear
10:15 AM 64.4 °F 57.2 °F 77% 29.72 in 10.0 mi SW 21.9 mph 27.6 mph N/A   Clear
10:35 AM 66.2 °F 59.0 °F 78% 29.72 in 10.0 mi SW 20.7 mph - N/A   Clear
10:55 AM 68.0 °F 59.0 °F 73% 29.71 in 10.0 mi WSW 21.9 mph 28.8 mph N/A   Clear
11:15 AM 69.8 °F 59.0 °F 68% 29.71 in 10.0 mi WSW 25.3 mph 32.2 mph N/A   Clear
11:35 AM 69.8 °F 59.0 °F 68% 29.72 in 10.0 mi West 24.2 mph - N/A   Clear
11:55 AM 71.6 °F 60.8 °F 69% 29.73 in 10.0 mi WSW 24.2 mph 31.1 mph N/A   Clear
12:15 PM 71.6 °F 60.8 °F 69% 29.73 in 10.0 mi WSW 23.0 mph 33.4 mph N/A   Clear
12:35 PM 71.6 °F 60.8 °F 69% 29.74 in 10.0 mi WSW 21.9 mph 28.8 mph N/A   Partly Cloudy
12:55 PM 71.6 °F 60.8 °F 69% 29.75 in 10.0 mi WSW 23.0 mph 32.2 mph N/A   Scattered Clouds
1:15 PM 71.6 °F 62.6 °F 73% 29.75 in 10.0 mi WSW 23.0 mph 29.9 mph N/A   Partly Cloudy
1:35 PM 71.6 °F 62.6 °F 73% 29.75 in 10.0 mi WSW 23.0 mph 31.1 mph N/A   Partly Cloudy
1:55 PM 73.4 °F 62.6 °F 69% 29.76 in 10.0 mi WSW 20.7 mph 27.6 mph N/A   Partly Cloudy
2:15 PM 73.4 °F 62.6 °F 69% 29.77 in 10.0 mi WSW 23.0 mph - N/A   Mostly Cloudy
2:35 PM 73.4 °F 62.6 °F 69% 29.78 in 10.0 mi West 17.3 mph 24.2 mph N/A   Overcast
2:55 PM 77.0 °F 62.6 °F 61% 29.78 in 10.0 mi West 18.4 mph 25.3 mph N/A   Mostly Cloudy
3:15 PM 75.2 °F 62.6 °F 65% 29.78 in 10.0 mi West 17.3 mph 23.0 mph N/A   Mostly Cloudy
3:35 PM 75.2 °F 60.8 °F 61% 29.78 in 10.0 mi West 17.3 mph - N/A   Scattered Clouds
3:55 PM 77.0 °F 62.6 °F 61% 29.79 in 10.0 mi West 17.3 mph 23.0 mph N/A   Partly Cloudy
4:15 PM 77.0 °F 62.6 °F 61% 29.79 in 10.0 mi West 17.3 mph - N/A   Mostly Cloudy
4:35 PM 77.0 °F 62.6 °F 61% 29.80 in 10.0 mi West 16.1 mph - N/A   Scattered Clouds
4:55 PM 77.0 °F 62.6 °F 61% 29.81 in 10.0 mi WNW 11.5 mph 18.4 mph N/A   Mostly Cloudy
5:15 PM 77.0 °F 60.8 °F 57% 29.81 in 10.0 mi WNW 11.5 mph 19.6 mph N/A   Scattered Clouds
5:35 PM 77.0 °F 60.8 °F 57% 29.81 in 10.0 mi WNW 13.8 mph - N/A   Clear
5:55 PM 77.0 °F 62.6 °F 61% 29.82 in 10.0 mi West 9.2 mph - N/A   Clear
6:15 PM 77.0 °F 60.8 °F 57% 29.82 in 10.0 mi West 10.4 mph - N/A   Clear
6:35 PM 75.2 °F 62.6 °F 65% 29.83 in 10.0 mi West 8.1 mph - N/A   Clear
6:55 PM 73.4 °F 62.6 °F 69% 29.84 in 10.0 mi West 6.9 mph - N/A   Partly Cloudy
7:15 PM 71.6 °F 62.6 °F 73% 29.84 in 10.0 mi West 8.1 mph - N/A   Clear
7:35 PM 68.0 °F 62.6 °F 83% 29.85 in 10.0 mi West 6.9 mph - N/A   Clear
7:55 PM 66.2 °F 62.6 °F 88% 29.86 in 10.0 mi West 8.1 mph - N/A   Clear
8:15 PM 66.2 °F 62.6 °F 88% 29.87 in 10.0 mi West 6.9 mph - N/A   Clear
8:35 PM 64.4 °F 62.6 °F 94% 29.88 in 10.0 mi West 8.1 mph - N/A   Clear
9:15 PM 64.4 °F 62.6 °F 94% 29.89 in 10.0 mi West 10.4 mph - N/A   Clear
9:35 PM 62.6 °F 62.6 °F 100% 29.89 in 10.0 mi West 11.5 mph - N/A   Clear
9:55 PM 62.6 °F 62.6 °F 100% 29.90 in 10.0 mi West 8.1 mph - N/A   Clear
10:15 PM 62.6 °F 62.6 °F 100% 29.90 in 10.0 mi West 11.5 mph - N/A   Clear
10:35 PM 62.6 °F 62.6 °F 100% 29.90 in 10.0 mi WSW 11.5 mph - N/A   Clear
10:55 PM 62.6 °F 62.6 °F 100% 29.91 in 10.0 mi West 11.5 mph - N/A   Clear
11:15 PM 64.4 °F 60.8 °F 88% 29.91 in 10.0 mi West 11.5 mph - N/A   Clear
11:35 PM 64.4 °F 60.8 °F 88% 29.92 in 10.0 mi West 12.7 mph - N/A   Clear
11:55 PM 62.6 °F 60.8 °F 94% 29.92 in 10.0 mi West 9.2 mph - N/A   Clear